LUCH 5A (SDCM/PRN 140)

Last updated on Oct. 27, 2021, 12:03 a.m. UTC

1 37951U 11074B   21299.64187844 -.00000037  00000-0  00000-0 0  9994
2 37951   4.4329 102.4135 0002633  76.8742 253.9469  1.00272977 36195
UTC
Height (km)
Latitude
Longitude
Inclination
Orbital Period
UTC large
Height (km)
Speed (km/s)
/
Latitude / Longitude
Inclination (degrees)
Orbital Period (minutes)
Azimuth
Elevation
Range (km)
Doppler Factor
iOS Compass Heading
iOS Angle